Bigfork, MN

1:42 PM CST on February 23, 2017 (GMT -0600)
Bigfork Municipal

Weather History for KFOZ - November, 2013

Change the Weather History Date:

Wednesday, November 13, 2013

  Actual Average (KGPZ) Record (KGPZ)
Temperature  
Mean Temperature 34 °F -  
Max Temperature 46 °F 34 °F 62 °F (1999)
Min Temperature 21 °F 20 °F -8 °F (1919)
Degree Days  
Heating Degree Days 32    
Moisture  
Dew Point 24 °F    
Average Humidity 70    
Maximum Humidity 87    
Minimum Humidity 53    
Precipitation  
Precipitation 0.00 in - - ()
Sea Level Pressure  
Sea Level Pressure 29.86 in    
Wind  
Wind Speed 10 mph (SSW)    
Max Wind Speed 18 mph    
Max Gust Speed 25 mph    
Visibility 10 miles    
Events      
Averages and records for this station are not official NWS values.
T = Trace of Precipitation, MM = Missing Value Source: NWS Daily Summary

Daily Weather History Graph

Daily Weather History Graph

Search for Another Location

Airport or City:

Trip Planner

Search our weather history database for the weather conditions in past years. The results will help you decide how hot, cold, wet, or windy it might be!

Date:

Astronomy

Nov. 13, 2013 Rise Set
Actual Time 7:17 AM CST 4:39 PM CST
Civil Twilight 6:44 AM CST 5:13 PM CST
Nautical Twilight 6:06 AM CST 5:50 PM CST
Astronomical Twilight 5:30 AM CST 6:26 PM CST
Moon 2:41 PM CST (11/13) 2:54 AM CST (11/13)
Length of Visible Light 10h 29m
Length of Day
9h 21m
Waxing Gibbous, 85% of the Moon is Illuminated
Nov 13
Waxing Gibbous
Nov 17
Full
Nov 25
Last Quarter
Dec 2
New
Dec 9
First Quarter

Hourly Weather History & Observations

Time (CST) Temp. Windchill Dew Point Humidity Pressure Visibility Wind Dir Wind Speed Gust Speed Precip Events Conditions
12:13 AM 21.2 °F 11.7 °F 10.4 °F 63% 30.19 in 10.0 mi South 8.1 mph - N/A   Clear
12:33 AM 21.2 °F 10.9 °F 10.4 °F 63% 30.18 in 10.0 mi South 9.2 mph - N/A   Clear
12:53 AM 21.2 °F 10.9 °F 10.4 °F 63% 30.17 in 10.0 mi South 9.2 mph - N/A   Clear
1:13 AM 21.2 °F 10.1 °F 12.2 °F 68% 30.15 in 10.0 mi South 10.4 mph - N/A   Clear
1:33 AM 21.2 °F 10.9 °F 12.2 °F 68% 30.14 in 10.0 mi South 9.2 mph - N/A   Clear
1:53 AM 21.2 °F 10.1 °F 12.2 °F 68% 30.13 in 10.0 mi South 10.4 mph - N/A   Clear
2:13 AM 21.2 °F 10.1 °F 12.2 °F 68% 30.12 in 10.0 mi South 10.4 mph - N/A   Clear
2:33 AM 21.2 °F 10.9 °F 12.2 °F 68% 30.10 in 10.0 mi South 9.2 mph - N/A   Clear
2:53 AM 21.2 °F 10.1 °F 14.0 °F 74% 30.09 in 10.0 mi South 10.4 mph - N/A   Clear
3:13 AM 21.2 °F 10.1 °F 14.0 °F 74% 30.07 in 10.0 mi South 10.4 mph - N/A   Clear
3:33 AM 21.2 °F 10.9 °F 14.0 °F 74% 30.05 in 10.0 mi South 9.2 mph - N/A   Clear
3:53 AM 21.2 °F 10.1 °F 15.8 °F 80% 30.03 in 10.0 mi South 10.4 mph - N/A   Clear
4:13 AM 21.2 °F 10.9 °F 15.8 °F 80% 30.03 in 10.0 mi South 9.2 mph - N/A   Clear
4:33 AM 21.2 °F 10.9 °F 15.8 °F 80% 30.02 in 10.0 mi South 9.2 mph - N/A   Clear
4:53 AM 23.0 °F 12.4 °F 15.8 °F 74% 30.02 in 10.0 mi SSW 10.4 mph - N/A   Clear
5:13 AM 23.0 °F 12.4 °F 15.8 °F 74% 29.99 in 10.0 mi South 10.4 mph 16.1 mph N/A   Clear
5:33 AM 24.8 °F 14.6 °F 17.6 °F 74% 29.97 in 10.0 mi South 10.4 mph 18.4 mph N/A   Clear
5:53 AM 24.8 °F 13.4 °F 17.6 °F 74% 29.95 in 10.0 mi South 12.7 mph - N/A   Clear
6:13 AM 24.8 °F 12.9 °F 17.6 °F 74% 29.93 in 10.0 mi South 13.8 mph 21.9 mph N/A   Clear
6:33 AM 24.8 °F 14.0 °F 17.6 °F 74% 29.92 in 10.0 mi South 11.5 mph 19.6 mph N/A   Clear
6:53 AM 24.8 °F 13.4 °F 17.6 °F 74% 29.89 in 10.0 mi South 12.7 mph 20.7 mph N/A   Clear
7:13 AM 24.8 °F 12.9 °F 19.4 °F 80% 29.89 in 10.0 mi SSW 13.8 mph 18.4 mph N/A   Clear
7:33 AM 24.8 °F 12.9 °F 19.4 °F 80% 29.88 in 10.0 mi SSW 13.8 mph 20.7 mph N/A   Clear
7:53 AM 26.6 °F 13.8 °F 19.4 °F 74% 29.86 in 10.0 mi SSW 17.3 mph 24.2 mph N/A   Clear
8:13 AM 26.6 °F 13.4 °F 19.4 °F 74% 29.85 in 10.0 mi South 18.4 mph 23.0 mph N/A   Clear
8:33 AM 26.6 °F 13.8 °F 19.4 °F 74% 29.83 in 10.0 mi SSW 17.3 mph 24.2 mph N/A   Clear
8:53 AM 26.6 °F 14.7 °F 21.2 °F 80% 29.82 in 10.0 mi SSW 15.0 mph 23.0 mph N/A   Clear
9:13 AM 28.4 °F 17.5 °F 21.2 °F 74% 29.80 in 10.0 mi SSW 13.8 mph - N/A   Clear
9:33 AM 30.2 °F 19.3 °F 23.0 °F 75% 29.80 in 10.0 mi SSW 15.0 mph 21.9 mph N/A   Clear
9:53 AM 32.0 °F 20.5 °F 24.8 °F 75% 29.79 in 10.0 mi SSW 18.4 mph 23.0 mph N/A   Clear
10:13 AM 33.8 °F 23.9 °F 24.8 °F 70% 29.78 in 10.0 mi SW 15.0 mph 25.3 mph N/A   Clear
10:33 AM 35.6 °F 26.6 °F 24.8 °F 65% 29.79 in 10.0 mi SW 13.8 mph 21.9 mph N/A   Clear
10:53 AM 37.4 °F 27.8 °F 26.6 °F 65% 29.79 in 10.0 mi SW 17.3 mph 21.9 mph N/A   Clear
11:13 AM 37.4 °F 28.5 °F 26.6 °F 65% 29.78 in 10.0 mi SW 15.0 mph 20.7 mph N/A   Clear
11:33 AM 37.4 °F 27.8 °F 26.6 °F 65% 29.76 in 10.0 mi SW 17.3 mph 23.0 mph N/A   Clear
11:53 AM 39.2 °F 30.8 °F 28.4 °F 65% 29.75 in 10.0 mi SW 15.0 mph 20.7 mph N/A   Clear
12:13 PM 39.2 °F 31.2 °F 28.4 °F 65% 29.74 in 10.0 mi SW 13.8 mph 21.9 mph N/A   Clear
12:33 PM 41.0 °F 32.2 °F 28.4 °F 61% 29.74 in 10.0 mi SW 18.4 mph 25.3 mph N/A   Clear
12:53 PM 42.8 °F 34.8 °F 28.4 °F 57% 29.73 in 10.0 mi SW 17.3 mph 20.7 mph N/A   Clear
1:13 PM 42.8 °F 36.2 °F 28.4 °F 57% 29.74 in 10.0 mi SW 12.7 mph 18.4 mph N/A   Clear
1:33 PM 42.8 °F 36.6 °F 30.2 °F 61% 29.74 in 10.0 mi SW 11.5 mph 17.3 mph N/A   Clear
1:53 PM 42.8 °F 37.5 °F 30.2 °F 61% 29.74 in 10.0 mi SW 9.2 mph - N/A   Clear
2:13 PM 44.6 °F 39.2 °F 30.2 °F 57% 29.73 in 10.0 mi SW 10.4 mph - N/A   Clear
2:33 PM 44.6 °F 40.2 °F 30.2 °F 57% 29.73 in 10.0 mi WSW 8.1 mph - N/A   Clear
2:53 PM 44.6 °F 40.7 °F 32.0 °F 61% 29.73 in 10.0 mi WSW 6.9 mph - N/A   Clear
3:13 PM 46.4 °F 42.4 °F 30.2 °F 53% 29.74 in 10.0 mi West 8.1 mph - N/A   Clear
3:33 PM 46.4 °F 41.9 °F 30.2 °F 53% 29.75 in 10.0 mi WSW 9.2 mph 18.4 mph N/A   Clear
3:53 PM 44.6 °F 39.7 °F 30.2 °F 57% 29.74 in 10.0 mi WSW 9.2 mph - N/A   Clear
4:13 PM 44.6 °F 40.2 °F 30.2 °F 57% 29.75 in 10.0 mi WSW 8.1 mph - N/A   Clear
4:33 PM 42.8 °F 38.0 °F 30.2 °F 61% 29.76 in 10.0 mi WSW 8.1 mph - N/A   Clear
4:53 PM 42.8 °F 38.6 °F 32.0 °F 66% 29.76 in 10.0 mi WSW 6.9 mph - N/A   Clear
5:13 PM 42.8 °F 38.0 °F 32.0 °F 66% 29.76 in 10.0 mi SW 8.1 mph - N/A   Clear
5:33 PM 42.8 °F 38.0 °F 32.0 °F 66% 29.76 in 10.0 mi SW 8.1 mph - N/A   Clear
5:53 PM 42.8 °F 38.6 °F 32.0 °F 66% 29.76 in 10.0 mi SW 6.9 mph - N/A   Clear
6:13 PM 41.0 °F 36.4 °F 32.0 °F 70% 29.77 in 10.0 mi WSW 6.9 mph - N/A   Clear
6:33 PM 42.8 °F 39.3 °F 33.8 °F 70% 29.77 in 10.0 mi WSW 5.8 mph - N/A   Clear
6:53 PM 42.8 °F 40.1 °F 33.8 °F 70% 29.77 in 10.0 mi WSW 4.6 mph - N/A   Clear
7:13 PM 42.8 °F 40.1 °F 33.8 °F 70% 29.77 in 10.0 mi WSW 4.6 mph - N/A   Clear
7:33 PM 41.0 °F 39.0 °F 32.0 °F 70% 29.77 in 10.0 mi WSW 3.5 mph - N/A   Clear
7:53 PM 39.2 °F 37.0 °F 32.0 °F 75% 29.77 in 10.0 mi SW 3.5 mph - N/A   Clear
8:13 PM 37.4 °F 34.9 °F 30.2 °F 75% 29.77 in 10.0 mi SW 3.5 mph - N/A   Clear
8:33 PM 35.6 °F 32.8 °F 30.2 °F 81% 29.77 in 10.0 mi SW 3.5 mph - N/A   Clear
8:53 PM 35.6 °F - 30.2 °F 81% 29.77 in 10.0 mi Calm Calm - N/A   Clear
9:14 PM 35.6 °F 32.8 °F 30.2 °F 81% 29.78 in 10.0 mi SSW 3.5 mph - N/A   Clear
9:33 PM 35.6 °F 32.8 °F 30.2 °F 81% 29.78 in 10.0 mi SSW 3.5 mph - N/A   Clear
9:53 PM 33.8 °F - 30.2 °F 87% 29.78 in 10.0 mi Calm Calm - N/A   Clear
10:13 PM 33.8 °F - 28.4 °F 81% 29.78 in 10.0 mi Calm Calm - N/A   Clear
10:33 PM 33.8 °F - 28.4 °F 81% 29.78 in 10.0 mi Calm Calm - N/A   Clear
10:53 PM 33.8 °F - 28.4 °F 81% 29.77 in 10.0 mi Calm Calm - N/A   Clear
11:13 PM 33.8 °F - 28.4 °F 81% 29.77 in 10.0 mi Calm Calm - N/A   Clear
11:33 PM 33.8 °F - 28.4 °F 81% 29.76 in 10.0 mi Calm Calm - N/A   Clear
11:53 PM 33.8 °F - 28.4 °F 81% 29.77 in 10.0 mi Calm Calm - N/A   Clear